Location: Grand Moustoir
(47.8355°N, 3.3120°W)
Time: 11:58:59
(UTC+00:00)

Abrixas rocket - Pass Details

Date: 20 January 2020
Orbit: 353 x 361 km, 48.4° (Epoch: 20 February)

Event Time Altitude Azimuth Distance (km) Brightness Sun altitude
Exits shadow 05:57:29 81° 109° (ESE) 372 1.9 -19.2°
Drops below altitude 10° 06:00:27 10° 101° (ESE) 1,373 6.1 -18.7°
Sets 06:02:26 0° 102° (ESE) 2,201 7.6 -18.4°
